K8EMA-4 Weather Reports


Display with metric or nautical units.
time (UTC)temp
F
wind
direction
speed
MPH
gust
MPH
rain 1hr
in
rain 24hr
in
rain mn
in
humidity
%
barometer
mb
20260507045121 41 274 0.0 0.0 0.00 0.15 0.00 100
20260507044621 41 274 0.0 0.0 0.00 0.15 0.00 100
20260507044121 41 274 0.0 0.0 0.00 0.15 0.00 100
20260507043621 41 274 0.0 0.0 0.00 0.15 0.00 100
20260507043121 41 274 0.0 0.0 0.00 0.15 0.00 100
20260507042622 41 274 0.0 0.0 0.00 0.15 0.00 100
20260507042121 42 274 0.0 0.0 0.00 0.15 0.00 100
20260507041624 42 274 0.0 0.0 0.00 0.15 0.00 100
20260507041121 41 274 0.0 0.0 0.00 0.15 0.00 100
20260507040621 41 274 0.0 0.0 0.00 0.15 0.00 100
20260507040501 41 274 0.0 0.0 0.00 0.15 0.00 100
20260507040121 41 274 0.0 0.0 0.00 0.15 0.00 100
20260507035625 40 274 0.0 0.0 0.00 0.22 0.21 100
20260507035121 40 274 0.0 0.0 0.00 0.22 0.21 100
20260507034621 40 274 0.0 0.0 0.00 0.22 0.21 100
20260507034121 40 274 0.0 0.0 0.00 0.22 0.21 100
20260507033621 40 274 0.0 0.0 0.00 0.22 0.21 100
20260507033122 40 274 0.0 0.0 0.00 0.22 0.21 100
20260507032621 41 274 0.0 0.0 0.00 0.22 0.21 100
20260507032121 41 274 0.0 0.0 0.00 0.22 0.21 100
20260507031621 41 274 0.0 0.0 0.00 0.22 0.21 100
20260507031121 41 274 0.0 0.0 0.00 0.22 0.21 100
20260507030621 42 274 0.0 0.0 0.00 0.22 0.21 100
20260507030121 41 274 0.0 0.0 0.00 0.22 0.21 100
20260507025621 41 274 0.0 0.0 0.00 0.32 0.21 100
20260507025121 42 274 0.0 0.0 0.00 0.32 0.21 100
20260507024621 42 274 0.0 0.0 0.00 0.32 0.21 100
20260507024121 42 274 0.0 0.0 0.00 0.32 0.21 100
20260507023621 42 274 0.0 0.0 0.00 0.32 0.21 100
20260507023122 42 274 0.0 0.0 0.00 0.32 0.21 100
20260507022622 42 274 0.0 0.0 0.00 0.32 0.21 100
20260507022121 43 274 0.0 0.0 0.00 0.32 0.21 100
20260507021621 44 274 0.0 0.0 0.00 0.32 0.21 100
20260507021121 44 274 0.0 0.0 0.00 0.32 0.21 100
20260507020720 43 274 0.0 0.0 0.00 0.32 0.21 100
20260507020621 43 274 0.0 0.0 0.00 0.32 0.21 100
20260507020121 43 274 0.0 0.0 0.00 0.32 0.21 100
20260507015621 43 274 0.0 0.0 0.00 0.44 0.21 100
20260507015121 43 274 0.0 0.0 0.00 0.44 0.21 100
20260507014621 43 274 0.0 0.0 0.00 0.44 0.21 100
20260507014123 44 274 0.0 0.0 0.00 0.44 0.21 100
20260507013621 44 274 0.0 0.0 0.00 0.44 0.21 100
20260507013121 44 274 0.0 0.0 0.00 0.44 0.21 100
20260507012623 44 274 0.0 0.0 0.00 0.44 0.21 100
20260507012121 45 274 0.0 0.0 0.00 0.44 0.21 100
20260507011621 45 274 0.0 0.0 0.00 0.44 0.21 100
20260507011121 45 274 0.0 0.0 0.00 0.44 0.21 100
20260507010621 45 274 0.0 0.0 0.00 0.44 0.21 100
20260507010121 45 274 0.0 0.0 0.00 0.44 0.21 100
20260507005621 46 274 0.0 0.0 0.00 0.58 0.21 100
20260507005121 46 274 0.0 0.0 0.00 0.58 0.21 100
20260507004621 46 274 0.0 0.0 0.00 0.58 0.21 100
20260507004122 47 274 0.0 0.0 0.00 0.58 0.21 100
20260507003624 48 274 0.0 0.0 0.00 0.58 0.21 100
20260507003122 49 274 0.0 0.0 0.00 0.58 0.21 100
20260507002622 50 274 0.0 5.0 0.00 0.58 0.21 100
20260507002122 50 322 1.0 4.0 0.00 0.58 0.21 100
20260507001622 51 316 2.0 4.0 0.00 0.58 0.21 100
20260507001122 51 333 3.0 4.0 0.00 0.58 0.21 100
20260507000622 53 333 3.0 5.0 0.00 0.58 0.21 100
20260507000122 55 341 4.0 5.0 0.00 0.58 0.21 100
20260506235622 56 316 3.0 7.0 0.00 0.86 0.21 100
20260506235122 56 358 2.0 7.0 0.00 0.86 0.21 100
20260506234622 57 292 5.0 8.0 0.00 0.86 0.21 100
20260506234122 57 317 5.0 9.0 0.00 0.86 0.21 100
20260506233626 59 322 6.0 7.0 0.00 0.86 0.21 100
20260506233122 56 315 2.0 7.0 0.00 0.86 0.21 100
20260506232622 54 307 7.0 7.0 0.00 0.86 0.21 100
20260506232122 54 286 1.0 5.0 0.00 0.86 0.21 100
20260506231622 54 310 0.0 7.0 0.00 0.86 0.21 100
20260506231122 54 320 3.0 6.0 0.00 0.86 0.21 100
20260506230622 54 316 3.0 7.0 0.00 0.86 0.21 100
20260506230122 53 305 4.0 6.0 0.00 0.86 0.21 100
20260506225622 53 323 2.0 8.0 0.00 0.98 0.21 100
20260506225122 54 296 1.0 6.0 0.00 0.98 0.21 100
20260506224623 54 330 3.0 8.0 0.00 0.98 0.21 100
20260506224123 54 303 8.0 9.0 0.00 0.98 0.21 100
20260506223624 54 306 3.0 6.0 0.00 0.98 0.21 100
20260506223122 54 320 3.0 10.0 0.00 0.98 0.21 100
20260506222624 54 309 3.0 7.0 0.00 0.98 0.21 100
20260506222123 54 317 6.0 7.0 0.00 0.98 0.21 100
20260506221626 54 307 3.0 9.0 0.00 0.98 0.21 100
20260506221122 55 334 3.0 8.0 0.00 0.98 0.21 100
20260506220622 56 322 7.0 9.0 0.00 0.98 0.21 100
20260506220122 56 312 3.0 10.0 0.00 0.98 0.21 100
20260506215622 56 307 4.0 9.0 0.00 1.08 0.21 100
20260506215122 56 319 5.0 8.0 0.00 1.08 0.21 100
20260506214622 55 337 4.0 9.0 0.00 1.08 0.21 100
20260506214122 55 338 5.0 10.0 0.00 1.08 0.21 100
20260506213624 55 316 6.0 9.0 0.00 1.08 0.21 100
20260506213122 55 334 5.0 9.0 0.00 1.08 0.21 100
20260506212622 55 324 8.0 9.0 0.00 1.08 0.21 100
20260506212122 55 302 6.0 9.0 0.00 1.08 0.21 100
20260506211622 56 288 7.0 9.0 0.00 1.08 0.21 100
20260506211123 57 282 8.0 9.0 0.00 1.08 0.21 100
20260506210622 57 303 8.0 9.0 0.00 1.08 0.21 100
20260506210122 57 298 4.0 9.0 0.00 1.08 0.21 100
20260506205626 58 299 4.0 9.0 0.00 1.09 0.21 100
20260506205122 57 296 5.0 13.0 0.00 1.09 0.21 100
20260506204622 58 310 6.0 9.0 0.00 1.09 0.21 100
20260506204122 59 327 2.0 8.0 0.00 1.09 0.21 100
20260506203622 58 348 7.0 9.0 0.00 1.09 0.21 100
20260506203122 57 281 4.0 8.0 0.00 1.09 0.21 100
20260506202622 57 330 5.0 11.0 0.00 1.09 0.21 100
20260506202122 57 348 5.0 7.0 0.00 1.09 0.21 100
20260506201622 57 293 6.0 8.0 0.00 1.09 0.21 100
20260506201123 58 22 3.0 8.0 0.00 1.09 0.21 100
20260506200622 58 313 6.0 9.0 0.00 1.09 0.21 100
20260506200123 59 338 5.0 7.0 0.00 1.09 0.21 100
20260506195622 60 309 5.0 7.0 0.00 1.20 0.21 100
20260506195402 59 52 2.0 5.0 0.00 1.20 0.21 100
20260506195123 59 52 2.0 5.0 0.00 1.20 0.21 100
20260506194622 59 296 2.0 7.0 0.00 1.20 0.21 100
20260506194122 58 16 4.0 6.0 0.00 1.20 0.21 100
20260506193622 57 307 0.0 7.0 0.00 1.20 0.21 100
20260506193122 56 322 4.0 8.0 0.00 1.20 0.21 100
20260506192622 57 306 4.0 8.0 0.00 1.20 0.21 100
20260506192122 57 338 2.0 7.0 0.00 1.20 0.21 100
20260506191622 57 279 0.0 7.0 0.00 1.20 0.21 100
20260506191122 56 296 6.0 8.0 0.00 1.20 0.21 100
20260506190622 56 329 3.0 9.0 0.00 1.20 0.21 100
20260506190122 57 337 4.0 7.0 0.00 1.20 0.21 100
20260506185623 56 310 6.0 10.0 0.00 1.29 0.21 100
20260506185122 56 316 3.0 8.0 0.00 1.29 0.21 100
20260506184622 56 270 3.0 9.0 0.00 1.29 0.21 100
20260506184122 56 285 9.0 9.0 0.00 1.29 0.21 100
20260506183622 57 326 2.0 8.0 0.00 1.29 0.21 100
20260506183122 58 2 5.0 7.0 0.00 1.29 0.21 100
20260506182622 57 327 7.0 10.0 0.00 1.29 0.21 100
20260506182123 58 302 7.0 8.0 0.00 1.29 0.21 100
20260506181625 58 352 1.0 9.0 0.00 1.29 0.21 100
20260506181122 58 286 6.0 10.0 0.00 1.29 0.21 100
20260506180122 56 299 6.0 9.0 0.00 1.29 0.21 100
20260506175622 56 302 9.0 11.0 0.00 1.34 0.21 100
20260506175122 56 32 1.0 8.0 0.00 1.34 0.21 100
20260506174622 57 279 3.0 8.0 0.00 1.34 0.21 100
20260506174122 57 285 5.0 10.0 0.00 1.34 0.21 100
20260506173623 58 292 2.0 9.0 0.00 1.34 0.21 100
20260506173122 60 298 5.0 7.0 0.00 1.34 0.21 100
20260506172622 62 11 3.0 9.0 0.00 1.34 0.21 100
20260506172123 61 313 6.0 9.0 0.00 1.34 0.21 100
20260506171623 62 333 7.0 10.0 0.00 1.34 0.21 100
20260506171123 61 323 3.0 11.0 0.00 1.34 0.21 100
20260506170624 62 341 5.0 9.0 0.00 1.34 0.21 100
20260506170125 62 15 5.0 12.0 0.00 1.34 0.21 100
20260506165622 65 309 9.0 11.0 0.00 1.35 0.21 100
20260506165122 68 341 6.0 9.0 0.00 1.35 0.21 100
20260506164622 65 300 6.0 10.0 0.00 1.35 0.21 100
20260506164122 67 344 5.0 12.0 0.00 1.35 0.21 100
20260506163622 67 46 3.0 11.0 0.00 1.35 0.21 100
20260506163122 64 303 3.0 11.0 0.00 1.35 0.21 100
20260506162623 63 302 10.0 12.0 0.00 1.35 0.21 100
20260506162122 70 317 1.0 7.0 0.00 1.35 0.21 100
20260506161625 64 8 7.0 7.0 0.00 1.35 0.21 100
20260506161122 63 310 4.0 13.0 0.00 1.35 0.21 100
20260506160623 62 341 11.0 11.0 0.00 1.35 0.21 100
20260506160125 67 291 8.0 10.0 0.00 1.35 0.21 100
20260506155622 63 323 8.0 11.0 0.00 1.35 0.21 100
20260506155122 65 85 2.0 9.0 0.00 1.35 0.21 100
20260506154622 60 299 4.0 11.0 0.00 1.35 0.21 100
20260506154122 65 295 7.0 8.0 0.00 1.35 0.21 100
20260506153623 61 298 8.0 13.0 0.00 1.35 0.21 100
20260506153122 64 296 8.0 10.0 0.00 1.35 0.21 100
20260506152622 62 300 6.0 12.0 0.00 1.35 0.21 100
20260506152122 59 312 7.0 10.0 0.00 1.35 0.21 100
20260506151656 59 18 0.0 9.0 0.00 1.35 0.21 100
20260506151622 59 18 0.0 9.0 0.00 1.35 0.21 100
20260506151122 56 351 0.0 9.0 0.00 1.35 0.21 100
20260506150622 57 1 7.0 10.0 0.00 1.35 0.21 100
20260506150122 56 289 6.0 8.0 0.00 1.35 0.21 100
20260506145622 57 8 1.0 8.0 0.00 1.35 0.21 100
20260506145125 57 37 4.0 9.0 0.00 1.35 0.21 100
20260506144622 57 296 3.0 8.0 0.00 1.35 0.21 100
20260506144123 55 348 4.0 8.0 0.00 1.35 0.21 100
20260506143622 56 316 6.0 11.0 0.00 1.35 0.21 100
20260506143122 58 334 6.0 7.0 0.00 1.35 0.21 100
20260506142622 63 357 0.0 9.0 0.00 1.35 0.21 100
20260506142122 63 344 3.0 10.0 0.00 1.35 0.21 100
20260506141623 62 358 2.0 11.0 0.00 1.35 0.21 100
20260506141123 59 329 6.0 11.0 0.00 1.35 0.21 100
20260506140623 62 324 7.0 10.0 0.00 1.35 0.21 100
20260506140124 61 319 6.0 11.0 0.00 1.35 0.21 100
20260506135623 61 293 4.0 11.0 0.00 1.35 0.21 100
20260506135123 63 315 5.0 8.0 0.00 1.35 0.21 100
20260506134623 62 286 6.0 10.0 0.00 1.35 0.21 100
20260506134123 61 277 4.0 8.0 0.00 1.35 0.21 100
20260506133623 56 317 3.0 9.0 0.00 1.35 0.21 100
20260506133123 54 319 4.0 8.0 0.00 1.35 0.21 100
20260506132623 53 19 4.0 9.0 0.00 1.35 0.21 100
20260506132126 53 43 2.0 10.0 0.00 1.35 0.21 100
20260506131623 53 317 4.0 7.0 0.00 1.35 0.21 100
20260506131123 52 336 4.0 8.0 0.00 1.35 0.21 100
20260506130623 54 315 1.0 7.0 0.00 1.35 0.21 100
20260506130123 52 320 6.0 6.0 0.00 1.35 0.21 100
20260506125624 52 351 2.0 8.0 0.00 1.35 0.21 100
20260506125123 49 315 6.0 7.0 0.00 1.35 0.21 100
20260506124623 49 316 3.0 7.0 0.00 1.35 0.21 100
20260506124123 49 306 7.0 7.0 0.00 1.35 0.21 100
20260506123624 48 327 5.0 7.0 0.00 1.35 0.21 100
20260506123123 48 329 2.0 6.0 0.00 1.35 0.21 100
20260506122623 48 341 2.0 4.0 0.00 1.35 0.21 100
20260506122123 47 352 0.0 5.0 0.00 1.35 0.21 100
20260506121623 46 277 1.0 6.0 0.00 1.35 0.21 100
20260506121123 46 5 1.0 7.0 0.00 1.35 0.21 100
20260506120623 45 324 4.0 6.0 0.00 1.35 0.21 100
20260506120124 45 15 2.0 4.0 0.00 1.35 0.21 100
20260506115623 45 348 3.0 6.0 0.00 1.35 0.21 100
20260506115123 45 319 2.0 4.0 0.00 1.35 0.21 100
20260506114623 45 330 2.0 6.0 0.00 1.35 0.21 100
20260506114123 44 7 2.0 3.0 0.00 1.35 0.21 100
20260506113623 44 8 1.0 3.0 0.00 1.35 0.21 100
20260506113123 44 347 2.0 5.0 0.00 1.35 0.21 100
20260506112623 44 334 0.0 4.0 0.00 1.35 0.21 100
20260506112123 44 288 0.0 3.0 0.00 1.35 0.21 100
20260506111623 44 306 1.0 4.0 0.00 1.35 0.21 100
20260506111124 43 320 0.0 3.0 0.00 1.35 0.21 100
20260506110623 43 336 1.0 5.0 0.00 1.35 0.21 100
20260506110123 43 337 2.0 2.0 0.00 1.35 0.21 100
20260506105623 43 4 0.0 5.0 0.00 1.35 0.21 100
20260506105123 43 351 1.0 3.0 0.00 1.35 0.21 100
20260506104623 43 354 2.0 4.0 0.00 1.35 0.21 100
20260506104123 43 5 2.0 4.0 0.00 1.35 0.21 100
20260506103623 43 18 3.0 5.0 0.00 1.35 0.21 100
20260506103123 42 343 0.0 9.0 0.00 1.35 0.21 100
20260506102623 42 16 7.0 7.0 0.00 1.35 0.21 100
20260506102123 42 337 1.0 3.0 0.00 1.35 0.21 100
20260506101623 42 18 1.0 3.0 0.00 1.35 0.21 100
20260506101123 42 9 0.0 8.0 0.00 1.35 0.21 100
20260506100623 42 307 2.0 5.0 0.00 1.35 0.21 100
20260506100125 42 9 2.0 6.0 0.00 1.35 0.21 100
20260506095623 42 350 0.0 7.0 0.00 1.35 0.21 100
20260506095123 42 9 4.0 7.0 0.00 1.35 0.21 100
20260506094625 42 347 2.0 7.0 0.00 1.35 0.21 100
20260506094123 42 26 3.0 8.0 0.00 1.35 0.21 100
20260506093623 42 355 0.0 5.0 0.00 1.35 0.21 100
20260506093124 42 16 2.0 8.0 0.00 1.35 0.21 100
20260506092623 42 340 5.0 8.0 0.00 1.35 0.21 100
20260506092123 42 15 2.0 5.0 0.00 1.35 0.21 100
20260506091623 42 352 1.0 5.0 0.00 1.35 0.21 100
20260506091126 42 5 3.0 5.0 0.00 1.35 0.21 100
20260506090623 42 21 4.0 7.0 0.00 1.35 0.21 100
20260506090123 42 25 3.0 3.0 0.01 1.35 0.21 100
20260506085623 42 281 1.0 4.0 0.01 1.37 0.21 100
20260506085123 42 322 3.0 5.0 0.01 1.37 0.21 100
20260506084624 42 341 2.0 4.0 0.01 1.37 0.21 100
20260506084125 42 336 2.0 5.0 0.02 1.37 0.21 100
20260506083623 42 289 1.0 6.0 0.02 1.37 0.21 100
20260506083123 42 11 4.0 7.0 0.02 1.37 0.21 100
20260506082623 42 30 7.0 9.0 0.02 1.37 0.21 100
20260506082123 42 12 4.0 7.0 0.02 1.37 0.21 100
20260506081623 42 5 2.0 10.0 0.02 1.37 0.21 100
20260506081123 42 1 9.0 9.0 0.02 1.37 0.21 100
20260506080623 42 358 2.0 5.0 0.02 1.37 0.21 100
20260506080125 42 19 3.0 8.0 0.01 1.36 0.20 100
20260506073125 43 35 5.0 11.0 0.00 1.48 0.19 100
20260506072623 43 15 9.0 10.0 0.01 1.48 0.19 100
20260506072123 42 56 6.0 10.0 0.01 1.48 0.19 100
20260506071623 42 14 4.0 11.0 0.02 1.48 0.19 100
20260506071123 42 26 3.0 11.0 0.03 1.48 0.19 100
20260506070623 42 4 7.0 9.0 0.04 1.48 0.19 100
20260506070123 43 323 4.0 5.0 0.05 1.48 0.19 100
20260506062123 42 9 3.0 7.0 0.07 1.47 0.18 100
20260506061623 42 11 2.0 5.0 0.07 1.46 0.17 100
20260506061123 42 36 3.0 8.0 0.07 1.45 0.16 100
20260506060623 42 15 0.0 4.0 0.07 1.44 0.15 100
20260506060123 42 7 1.0 5.0 0.07 1.43 0.14 100
20260506051124 42 50 1.0 6.0 0.06 1.40 0.09 100
20260506050623 42 28 4.0 7.0 0.06 1.39 0.08 100
20260506050123 42 52 5.0 12.0 0.06 1.38 0.07 100